Home > Weather > Charlottetown > Past weeks

Flag for Canada Past Weather in Charlottetown, Prince Edward Island, Canada — Yesterday and Last 2 Weeks

Now
64 °F

Clear.


Feels Like: 64 °F
Forecast: 65 / 80 °F
Wind: 3 mph from West

Location: Charlottetown

Current Time: Jul 27, 2016 at 2:56:07 AM

Latest Report: Jul 27, 2016 at 2:00 AM


Visibility: 15 mi

Pressure: 29.78 "Hg

Humidity: 100%

Dew Point: 64 °F

Location of CharlottetownLocation

Past Weather in Charlottetown — Graph

°F

Charlottetown Temperature Yesterday

Maximum temperature yesterday: 72 °F (at 4:00 PM)
Minimum temperature yesterday: 64 °F (at 11:04 AM)
Average temperature yesterday: 68 °F

High & Low Weather Summary for the Past Weeks

 TemperatureHumidityPressure
High82 °F (Jul 14, 4:00 PM)100% (Jul 13, 4:00 AM)30.18 "Hg (Jul 13, 4:00 AM)
Low50 °F (Jul 13, 4:00 AM)43% (Jul 13, 11:00 AM)29.60 "Hg (Jul 23, 2:00 AM)
Average68 °F76%29.87 "Hg
* Reported Jul 12 1:00 AM — Jul 27 1:00 AM, Charlottetown, Weather by CustomWeather, © 2016

Note: Actual official high and low records may vary slightly from our data, if they occured in-between our weather recording intervals... More about our weather records

Advertising

Charlottetown Weather History for the Previous 24 Hours

Scroll right to see more
 ConditionsComfort  
Time TempWeatherWind HumidityBarometerVisibility
1:00 AM
Wed, Jul 27
66 °FFog.5 mph100%29.77 "Hg15 mi
12:00 AM68 °FFog.2 mph94%29.76 "Hg15 mi
11:50 PM
Tue, Jul 26
68 °FPassing clouds.2 mph94%29.76 "Hg10 mi
11:00 PM68 °FFog.5 mph100%29.76 "Hg6 mi
10:00 PM68 °FPassing clouds.5 mph94%29.75 "Hg15 mi
9:00 PM70 °FBroken clouds.6 mph94%29.74 "Hg15 mi
8:00 PM72 °FBroken clouds.6 mph88%29.73 "Hg15 mi
7:00 PM72 °FBroken clouds.6 mph88%29.72 "Hg15 mi
6:00 PM72 °FSprinkles. Low clouds.6 mph83%29.73 "Hg15 mi
5:00 PM72 °FLow clouds.7 mph83%29.73 "Hg15 mi
4:00 PM72 °FLow clouds.13 mph83%29.73 "Hg15 mi
3:00 PM70 °FMostly cloudy.12 mph94%29.74 "Hg15 mi
2:00 PM68 °FLow clouds.14 mph94%29.75 "Hg10 mi
1:00 PM64 °FSprinkles. Fog.6 mph100%29.75 "Hg6 mi
12:51 PM64 °FRain showers. Fog.12 mph94%29.75 "Hg4 mi
12:00 PM64 °FSprinkles. Cloudy.12 mph94%29.76 "Hg10 mi
11:04 AM64 °FRain showers. Fog.15 mph88%29.78 "Hg2 mi
11:00 AM66 °FRain showers. Low clouds.15 mph83%29.78 "Hg8 mi
10:00 AM66 °FSprinkles. Mostly cloudy.12 mph88%29.79 "Hg15 mi
9:00 AM66 °FSprinkles. Mostly cloudy.9 mph94%29.79 "Hg10 mi
8:00 AM66 °FSprinkles. More clouds than sun.12 mph94%29.78 "Hg12 mi
7:00 AM68 °FCloudy.8 mph83%29.78 "Hg15 mi
6:00 AM68 °FPartly cloudy.8 mph83%29.79 "Hg15 mi
5:00 AM68 °FPartly cloudy.8 mph83%29.80 "Hg15 mi
4:00 AM68 °FPartly cloudy.7 mph83%29.80 "Hg15 mi
3:00 AM68 °FPartly cloudy.6 mph88%29.82 "Hg15 mi
2:00 AM66 °FPartly cloudy.5 mph94%29.82 "Hg15 mi
Weather by CustomWeather, © 2016

See weather overviewHow to use our weather pages